FW9229 Weather Reports


Display with metric or nautical units.
time (UTC)temp
F
wind
direction
speed
MPH
gust
MPH
rain 1hr
in
rain 24hr
in
rain mn
in
humidity
%
barometer
mb
20260504042015 70 212 2.0 9.0 0.00 0.00 0.00 52 1015.7
20260504041533 70 179 2.0 9.0 0.00 0.00 0.00 52 1015.8
20260504041013 70 175 3.0 10.0 0.00 0.00 0.00 51 1015.8
20260504040516 71 204 1.0 10.0 0.00 0.00 0.00 51 1015.8
20260504040030 71 214 3.0 9.0 0.00 0.00 0.00 50 1015.8
20260504035513 71 183 3.0 11.0 0.00 0.00 0.00 50 1015.9
20260504035015 71 203 2.0 11.0 0.00 0.00 0.00 50 1015.9
20260504034535 71 0 3.0 10.0 0.00 0.00 0.00 49 1015.9
20260504034013 71 0 2.0 9.0 0.00 0.00 0.00 49 1015.8
20260504033513 71 0 3.0 7.0 0.00 0.00 0.00 49 1015.9
20260504033032 71 190 2.0 7.0 0.00 0.00 0.00 49 1015.8
20260504032516 71 183 2.0 6.0 0.00 0.00 0.00 49 1015.6
20260504032017 71 0 1.0 6.0 0.00 0.00 0.00 48 1015.7
20260504031532 72 168 1.0 7.0 0.00 0.00 0.00 48 1015.6
20260504031013 72 0 2.0 11.0 0.00 0.00 0.00 48 1015.5
20260504030511 72 188 3.0 11.0 0.00 0.00 0.00 48 1015.5
20260504030040 72 211 2.0 7.0 0.00 0.00 0.00 48 1015.5
20260504025513 72 0 0.0 6.0 0.00 0.00 0.00 48 1015.5
20260504025040 72 199 1.0 6.0 0.00 0.00 0.00 47 1015.4
20260504024530 72 0 1.0 9.0 0.00 0.00 0.00 47 1015.4
20260504024013 72 212 2.0 9.0 0.00 0.00 0.00 47 1015.6
20260504023515 73 191 0.0 7.0 0.00 0.00 0.00 47 1015.6
20260504023032 73 0 2.0 7.0 0.00 0.00 0.00 47 1015.7
20260504022512 73 164 1.0 10.0 0.00 0.00 0.00 48 1015.7
20260504022016 73 186 3.0 10.0 0.00 0.00 0.00 47 1015.8
20260504021535 73 225 4.0 10.0 0.00 0.00 0.00 46 1015.6
20260504021012 73 218 2.0 10.0 0.00 0.00 0.00 46 1015.5
20260504020514 73 212 3.0 10.0 0.00 0.00 0.00 46 1015.4
20260504020036 74 204 2.0 8.0 0.00 0.00 0.00 46 1015.4
20260504015512 74 164 1.0 7.0 0.00 0.00 0.00 46 1015.3
20260504015015 74 231 2.0 10.0 0.00 0.00 0.00 45 1015.3
20260504014531 74 204 2.0 10.0 0.00 0.00 0.00 47 1015.3
20260504014013 74 231 2.0 8.0 0.00 0.00 0.00 45 1015.4
20260504013516 75 200 2.0 9.0 0.00 0.00 0.00 46 1015.3
20260504013033 75 216 2.0 9.0 0.00 0.00 0.00 46 1015.3
20260504012515 75 0 1.0 10.0 0.00 0.00 0.00 43 1015.2
20260504012020 76 203 3.0 13.0 0.00 0.00 0.00 42 1015.2
20260504011532 76 222 3.0 13.0 0.00 0.00 0.00 41 1015.3
20260504011014 76 166 2.0 10.0 0.00 0.00 0.00 41 1015.3
20260504010512 76 204 3.0 10.0 0.00 0.00 0.00 40 1015.2
20260504010030 77 150 1.0 8.0 0.00 0.00 0.00 39 1015.1
20260504005516 77 252 2.0 8.0 0.00 0.00 0.00 38 1015.0
20260504005013 77 239 2.0 8.0 0.00 0.00 0.00 37 1015.1
20260504004532 77 222 3.0 9.0 0.00 0.00 0.00 35 1015.2
20260504004013 77 0 2.0 9.0 0.00 0.00 0.00 34 1015.2
20260504003515 78 172 2.0 9.0 0.00 0.00 0.00 35 1015.0
20260504003034 78 210 2.0 8.0 0.00 0.00 0.00 35 1015.1
20260504002515 78 203 4.0 10.0 0.00 0.00 0.00 35 1015.1
20260504002014 78 207 3.0 11.0 0.00 0.00 0.00 34 1015.1
20260504001534 78 217 3.0 11.0 0.00 0.00 0.00 35 1015.1
20260504001014 78 180 3.0 11.0 0.00 0.00 0.00 35 1015.1
20260504000512 79 177 1.0 9.0 0.00 0.00 0.00 35 1015.3
20260504000032 79 227 2.0 12.0 0.00 0.00 0.00 34 1015.3
20260503235516 79 210 4.0 12.0 0.00 0.00 0.00 33 1015.3
20260503235014 79 227 3.0 11.0 0.00 0.00 0.00 34 1015.3
20260503234543 79 220 4.0 11.0 0.00 0.00 0.00 35 1015.3
20260503234013 79 210 2.0 11.0 0.00 0.00 0.00 34 1015.4
20260503233513 79 227 4.0 11.0 0.00 0.00 0.00 35 1015.3
20260503233031 79 0 2.0 12.0 0.00 0.00 0.00 35 1015.5
20260503232512 80 202 3.0 12.0 0.00 0.00 0.00 34 1015.4
20260503232014 80 210 2.0 9.0 0.00 0.00 0.00 34 1015.4
20260503231532 80 214 0.0 8.0 0.00 0.00 0.00 34 1015.3
20260503231018 80 214 2.0 11.0 0.00 0.00 0.00 34 1015.5
20260503230518 80 154 1.0 14.0 0.00 0.00 0.00 34 1015.4
20260503230040 80 179 3.0 14.0 0.00 0.00 0.00 32 1015.6
20260503225516 81 0 5.0 14.0 0.00 0.00 0.00 33 1015.7
20260503225015 81 229 3.0 12.0 0.00 0.00 0.00 33 1015.6
20260503224532 81 216 4.0 11.0 0.00 0.00 0.00 33 1015.8
20260503224013 81 229 4.0 11.0 0.00 0.00 0.00 33 1015.7
20260503223518 82 0 2.0 8.0 0.00 0.00 0.00 34 1015.8
20260503223032 82 267 1.0 14.0 0.00 0.00 0.00 34 1015.7
20260503222513 82 199 4.0 14.0 0.00 0.00 0.00 33 1015.8
20260503222017 82 203 3.0 11.0 0.00 0.00 0.00 32 1016.0
20260503221531 83 207 1.0 4.0 0.00 0.00 0.00 33 1016.1
20260503221018 83 258 0.0 5.0 0.00 0.00 0.00 32 1016.2
20260503220515 84 0 0.0 7.0 0.00 0.00 0.00 31 1016.0
20260503220044 84 0 1.0 9.0 0.00 0.00 0.00 31 1016.2
20260503215515 84 216 2.0 9.0 0.00 0.00 0.00 31 1016.3
20260503215013 84 0 1.0 9.0 0.00 0.00 0.00 31 1016.2
20260503214534 84 214 2.0 9.0 0.00 0.00 0.00 31 1016.3
20260503214012 84 201 1.0 9.0 0.00 0.00 0.00 31 1016.4
20260503213514 84 218 1.0 11.0 0.00 0.00 0.00 31 1016.4
20260503213032 83 0 4.0 11.0 0.00 0.00 0.00 31 1016.5
20260503212513 84 213 3.0 11.0 0.00 0.00 0.00 30 1016.5
20260503212014 84 0 4.0 9.0 0.00 0.00 0.00 28 1016.7
20260503211532 84 0 1.0 12.0 0.00 0.00 0.00 30 1016.8
20260503211015 84 208 2.0 12.0 0.00 0.00 0.00 31 1016.8
20260503210513 84 0 1.0 11.0 0.00 0.00 0.00 32 1016.9
20260503210031 84 233 3.0 11.0 0.00 0.00 0.00 31 1017.1
20260503205513 83 178 1.0 12.0 0.00 0.00 0.00 30 1017.1
20260503205014 83 200 4.0 12.0 0.00 0.00 0.00 31 1017.2
20260503204532 83 212 3.0 10.0 0.00 0.00 0.00 31 1017.2
20260503204014 83 0 4.0 13.0 0.00 0.00 0.00 30 1017.4
20260503203515 83 181 5.0 13.0 0.00 0.00 0.00 31 1017.4
20260503203038 83 204 0.0 14.0 0.00 0.00 0.00 32 1017.6
20260503202513 84 237 5.0 14.0 0.00 0.00 0.00 31 1017.6
20260503202014 83 0 3.0 11.0 0.00 0.00 0.00 31 1017.5
20260503201533 83 188 2.0 10.0 0.00 0.00 0.00 34 1017.6
20260503201012 83 166 2.0 12.0 0.00 0.00 0.00 32 1017.8
20260503200512 83 192 2.0 12.0 0.00 0.00 0.00 34 1017.8
20260503200032 83 0 0.0 9.0 0.00 0.00 0.00 35 1018.0
20260503195514 82 216 0.0 17.0 0.00 0.00 0.00 35 1018.1
20260503195015 82 0 2.0 17.0 0.00 0.00 0.00 34 1018.2
20260503194531 83 196 3.0 11.0 0.00 0.00 0.00 35 1018.2
20260503194012 82 227 1.0 11.0 0.00 0.00 0.00 34 1018.2
20260503193516 82 196 4.0 13.0 0.00 0.00 0.00 35 1018.4
20260503193035 83 208 5.0 13.0 0.00 0.00 0.00 36 1018.3
20260503192514 82 281 1.0 10.0 0.00 0.00 0.00 37 1018.4
20260503192013 82 0 2.0 10.0 0.00 0.00 0.00 37 1018.5
20260503191531 81 223 2.0 5.0 0.00 0.00 0.00 37 1018.6
20260503191013 82 0 0.0 12.0 0.00 0.00 0.00 38 1018.8
20260503190512 82 0 0.0 12.0 0.00 0.00 0.00 37 1018.7
20260503190032 82 204 1.0 14.0 0.00 0.00 0.00 38 1018.9
20260503185513 82 326 1.0 14.0 0.00 0.00 0.00 37 1018.8
20260503185014 82 234 3.0 10.0 0.00 0.00 0.00 36 1018.9
20260503184532 81 207 1.0 6.0 0.00 0.00 0.00 39 1019.0
20260503184014 81 216 1.0 7.0 0.00 0.00 0.00 37 1019.0
20260503183516 81 137 1.0 7.0 0.00 0.00 0.00 39 1019.0
20260503183044 81 210 1.0 10.0 0.00 0.00 0.00 38 1019.2
20260503182512 81 0 2.0 10.0 0.00 0.00 0.00 37 1019.4
20260503182013 81 204 1.0 9.0 0.00 0.00 0.00 37 1019.5
20260503181531 82 221 1.0 6.0 0.00 0.00 0.00 38 1019.5
20260503181014 82 0 0.0 9.0 0.00 0.00 0.00 39 1019.5
20260503180512 81 0 1.0 9.0 0.00 0.00 0.00 38 1019.5
20260503180034 81 0 1.0 9.0 0.00 0.00 0.00 40 1019.7
20260503175512 81 195 4.0 13.0 0.00 0.00 0.00 39 1020.0
20260503175018 81 199 2.0 13.0 0.00 0.00 0.00 39 1020.1
20260503174533 80 25 1.0 6.0 0.00 0.00 0.00 40 1020.3
20260503174013 80 0 1.0 6.0 0.00 0.00 0.00 40 1020.1
20260503173517 80 214 1.0 8.0 0.00 0.00 0.00 40 1020.2
20260503173030 80 0 1.0 8.0 0.00 0.00 0.00 40 1020.2
20260503172513 80 10 0.0 10.0 0.00 0.00 0.00 41 1020.3
20260503172017 80 210 2.0 10.0 0.00 0.00 0.00 41 1020.3
20260503171532 80 0 0.0 8.0 0.00 0.00 0.00 43 1020.4
20260503171013 80 0 0.0 8.0 0.00 0.00 0.00 44 1020.6
20260503170514 79 226 1.0 8.0 0.00 0.00 0.00 44 1020.7
20260503150516 69 0 1.0 6.0 0.00 0.00 0.00 59 1021.0
20260503131013 59 0 0.0 2.0 0.00 0.00 0.00 78 1020.7
20260503130512 59 0 0.0 0.0 0.00 0.00 0.00 79 1020.5
20260503110515 58 0 0.0 0.0 0.00 0.00 0.00 75 1019.9
20260503090513 59 0 0.0 0.0 0.00 0.00 0.00 71 1019.6
20260503081535 59 0 0.0 0.0 0.00 0.00 0.00 68 1019.6
20260503081016 60 0 0.0 0.0 0.00 0.00 0.00 68 1019.7
20260503080514 60 0 0.0 0.0 0.00 0.00 0.00 67 1019.7
20260503072514 60 0 0.0 0.0 0.00 0.00 0.00 68 1019.7
20260503072013 60 0 0.0 0.0 0.00 0.00 0.00 68 1019.7
20260503071534 60 0 0.0 0.0 0.00 0.00 0.00 69 1019.7
20260503071012 60 0 0.0 0.0 0.00 0.00 0.00 68 1019.9
20260503070512 61 0 0.0 0.0 0.00 0.00 0.00 67 1019.8
20260503055013 63 203 0.0 2.0 0.00 0.00 0.00 59 1019.6
20260503054533 64 0 0.0 2.0 0.00 0.00 0.00 59 1019.6
20260503054013 64 203 0.0 4.0 0.00 0.00 0.00 59 1019.6
20260503053513 64 0 0.0 4.0 0.00 0.00 0.00 59 1019.7
20260503053034 64 0 0.0 4.0 0.00 0.00 0.00 59 1019.6
20260503052513 64 0 0.0 3.0 0.00 0.00 0.00 58 1019.6
20260503052013 64 0 0.0 3.0 0.00 0.00 0.00 58 1019.5
20260503051530 64 0 0.0 3.0 0.00 0.00 0.00 58 1019.6
20260503051012 64 0 0.0 4.0 0.00 0.00 0.00 58 1019.6
20260503050513 64 204 0.0 4.0 0.00 0.00 0.00 57 1019.6
20260503050037 64 202 0.0 4.0 0.00 0.00 0.00 58 1019.6
20260503045514 65 204 0.0 4.0 0.00 0.00 0.00 57 1019.5
20260503045019 65 0 0.0 4.0 0.00 0.00 0.00 57 1019.6
20260503044532 65 0 0.0 5.0 0.00 0.00 0.00 57 1019.4
20260503044012 65 210 0.0 5.0 0.00 0.00 0.00 57 1019.4
20260503043513 65 210 1.0 5.0 0.00 0.00 0.00 56 1019.5
20260503043031 65 0 0.0 3.0 0.00 0.00 0.00 56 1019.4
20260503042513 65 197 0.0 4.0 0.00 0.00 0.00 55 1019.5